| time (UTC) | temp F | wind direction | speed MPH | gust MPH | rain 1hr in | rain 24hr in | rain mn in | humidity % | barometer mb |
| 20260503011236 | 56 | 112 | 1.0 | 2.0 | 0.00 | 0.00 | 0.00 | 69 | 1014.6 |
| 20260503011045 | 56 | 112 | 1.0 | 2.0 | 0.00 | 0.00 | 0.00 | 68 | 1014.6 |
| 20260503010848 | 57 | 112 | 1.0 | 2.0 | 0.00 | 0.00 | 0.00 | 70 | 1014.5 |
| 20260503010706 | 57 | 112 | 1.0 | 2.0 | 0.00 | 0.00 | 0.00 | 69 | 1014.6 |
| 20260503010515 | 57 | 112 | 2.0 | 2.0 | 0.00 | 0.00 | 0.00 | 69 | 1014.6 |
| 20260503010438 | 57 | 112 | 2.0 | 3.0 | 0.00 | 0.00 | 0.00 | 69 | 1014.7 |
| 20260503010333 | 57 | 112 | 1.0 | 3.0 | 0.00 | 0.00 | 0.00 | 69 | 1014.7 |
| 20260503010154 | 57 | 112 | 2.0 | 3.0 | 0.00 | 0.00 | 0.00 | 68 | 1014.6 |
| 20260503010007 | 58 | 112 | 2.0 | 3.0 | 0.00 | 0.00 | 0.00 | 66 | 1014.7 |
| 20260503005809 | 58 | 112 | 2.0 | 3.0 | 0.00 | 0.00 | 0.00 | 67 | 1014.6 |
| 20260503005625 | 58 | 112 | 2.0 | 3.0 | 0.00 | 0.00 | 0.00 | 65 | 1014.7 |
| 20260503005434 | 58 | 112 | 2.0 | 2.0 | 0.00 | 0.00 | 0.00 | 61 | 1014.7 |
| 20260503005240 | 58 | 112 | 2.0 | 2.0 | 0.00 | 0.00 | 0.00 | 63 | 1014.7 |
| 20260503005100 | 58 | 112 | 1.0 | 4.0 | 0.00 | 0.00 | 0.00 | 62 | 1014.7 |
| 20260503004910 | 58 | 112 | 1.0 | 4.0 | 0.00 | 0.00 | 0.00 | 61 | 1014.7 |
| 20260503004735 | 58 | 112 | 1.0 | 4.0 | 0.00 | 0.00 | 0.00 | 58 | 1014.8 |
| 20260503004612 | 58 | 112 | 1.0 | 4.0 | 0.00 | 0.00 | 0.00 | 57 | 1014.7 |
| 20260503004553 | 58 | 112 | 1.0 | 4.0 | 0.00 | 0.00 | 0.00 | 59 | 1014.7 |
| 20260503004405 | 58 | 68 | 1.0 | 3.0 | 0.00 | 0.00 | 0.00 | 61 | 1014.8 |
| 20260503004213 | 57 | 68 | 1.0 | 3.0 | 0.00 | 0.00 | 0.00 | 63 | 1014.7 |
| 20260503004034 | 57 | 68 | 1.0 | 3.0 | 0.00 | 0.00 | 0.00 | 62 | 1014.9 |
| 20260503003849 | 57 | 68 | 1.0 | 2.0 | 0.00 | 0.00 | 0.00 | 63 | 1014.9 |
| 20260503003700 | 57 | 68 | 1.0 | 3.0 | 0.00 | 0.00 | 0.00 | 64 | 1014.8 |
| 20260503003510 | 57 | 68 | 1.0 | 3.0 | 0.00 | 0.00 | 0.00 | 66 | 1014.9 |
| 20260503003325 | 57 | 68 | 1.0 | 3.0 | 0.00 | 0.00 | 0.00 | 65 | 1014.9 |
| 20260503003135 | 57 | 68 | 0.0 | 2.0 | 0.00 | 0.00 | 0.00 | 70 | 1014.9 |
| 20260503002940 | 57 | 68 | 0.0 | 2.0 | 0.00 | 0.00 | 0.00 | 68 | 1014.9 |
| 20260503002750 | 57 | 68 | 0.0 | 2.0 | 0.00 | 0.00 | 0.00 | 68 | 1014.9 |
| 20260503002736 | 57 | 68 | 0.0 | 2.0 | 0.00 | 0.00 | 0.00 | 67 | 1014.9 |
| 20260503002600 | 57 | 68 | 1.0 | 2.0 | 0.00 | 0.00 | 0.00 | 68 | 1014.9 |
| 20260503002418 | 58 | 68 | 0.0 | 2.0 | 0.00 | 0.00 | 0.00 | 68 | 1015.0 |
| 20260503002225 | 58 | 68 | 0.0 | 2.0 | 0.00 | 0.00 | 0.00 | 66 | 1014.9 |
| 20260503002025 | 58 | 68 | 0.0 | 2.0 | 0.00 | 0.00 | 0.00 | 66 | 1015.0 |
| 20260503001850 | 58 | 68 | 0.0 | 3.0 | 0.00 | 0.00 | 0.00 | 62 | 1015.0 |
| 20260503001655 | 58 | 68 | 0.0 | 3.0 | 0.00 | 0.00 | 0.00 | 65 | 1015.0 |
| 20260503001500 | 57 | 68 | 1.0 | 3.0 | 0.00 | 0.00 | 0.00 | 67 | 1015.0 |
| 20260503001322 | 57 | 68 | 1.0 | 1.0 | 0.00 | 0.00 | 0.00 | 66 | 1015.0 |
| 20260503001125 | 57 | 68 | 1.0 | 2.0 | 0.00 | 0.00 | 0.00 | 64 | 1015.0 |
| 20260503000956 | 57 | 68 | 1.0 | 3.0 | 0.00 | 0.00 | 0.00 | 64 | 1015.0 |
| 20260503000925 | 57 | 68 | 1.0 | 3.0 | 0.00 | 0.00 | 0.00 | 65 | 1015.0 |
| 20260503000725 | 57 | 68 | 2.0 | 3.0 | 0.00 | 0.00 | 0.00 | 67 | 1015.1 |
| 20260503000540 | 57 | 68 | 2.0 | 3.0 | 0.00 | 0.00 | 0.00 | 66 | 1015.0 |
| 20260503000348 | 56 | 180 | 2.0 | 3.0 | 0.00 | 0.00 | 0.00 | 68 | 1015.1 |
| 20260503000200 | 56 | 180 | 2.0 | 3.0 | 0.00 | 0.00 | 0.00 | 67 | 1015.0 |
| 20260503000015 | 56 | 180 | 2.0 | 3.0 | 0.00 | 0.00 | 0.00 | 65 | 1015.1 |
| 20260502235820 | 56 | 180 | 2.0 | 3.0 | 0.00 | 0.00 | 0.00 | 69 | 1015.1 |
| 20260502235635 | 56 | 180 | 1.0 | 3.0 | 0.00 | 0.00 | 0.00 | 70 | 1015.1 |
| 20260502235440 | 56 | 180 | 1.0 | 3.0 | 0.00 | 0.00 | 0.00 | 71 | 1015.1 |
| 20260502235317 | 56 | 180 | 1.0 | 3.0 | 0.00 | 0.00 | 0.00 | 71 | 1015.2 |
| 20260502235243 | 56 | 180 | 1.0 | 3.0 | 0.00 | 0.00 | 0.00 | 71 | 1015.1 |
| 20260502235055 | 56 | 180 | 0.0 | 2.0 | 0.00 | 0.00 | 0.00 | 72 | 1015.1 |
| 20260502234900 | 56 | 180 | 0.0 | 2.0 | 0.00 | 0.00 | 0.00 | 72 | 1015.2 |
| 20260502234705 | 56 | 180 | 0.0 | 2.0 | 0.00 | 0.00 | 0.00 | 73 | 1015.2 |
| 20260502234522 | 56 | 0 | 0.0 | 1.0 | 0.00 | 0.00 | 0.00 | 73 | 1015.2 |
| 20260502234339 | 56 | 0 | 0.0 | 0.0 | 0.00 | 0.00 | 0.00 | 73 | 1015.2 |
| 20260502234155 | 56 | 180 | 0.0 | 0.0 | 0.00 | 0.00 | 0.00 | 73 | 1015.3 |
| 20260502234005 | 56 | 180 | 0.0 | 0.0 | 0.00 | 0.00 | 0.00 | 73 | 1015.3 |
| 20260502233807 | 56 | 180 | 0.0 | 1.0 | 0.00 | 0.00 | 0.00 | 73 | 1015.3 |
| 20260502233614 | 56 | 180 | 1.0 | 1.0 | 0.00 | 0.00 | 0.00 | 74 | 1015.3 |
| 20260502233438 | 56 | 180 | 1.0 | 1.0 | 0.00 | 0.00 | 0.00 | 73 | 1015.3 |
| 20260502233425 | 56 | 180 | 1.0 | 1.0 | 0.00 | 0.00 | 0.00 | 74 | 1015.3 |
| 20260502233232 | 56 | 180 | 1.0 | 2.0 | 0.00 | 0.00 | 0.00 | 74 | 1015.3 |
| 20260502233049 | 56 | 180 | 1.0 | 2.0 | 0.00 | 0.00 | 0.00 | 74 | 1015.3 |
| 20260502232905 | 56 | 180 | 1.0 | 2.0 | 0.00 | 0.00 | 0.00 | 74 | 1015.3 |
| 20260502232726 | 56 | 180 | 1.0 | 2.0 | 0.00 | 0.00 | 0.00 | 74 | 1015.3 |
| 20260502232534 | 56 | 180 | 0.0 | 2.0 | 0.00 | 0.00 | 0.00 | 74 | 1015.2 |
| 20260502232344 | 56 | 180 | 0.0 | 2.0 | 0.00 | 0.00 | 0.00 | 75 | 1015.3 |
| 20260502232200 | 56 | 180 | 0.0 | 2.0 | 0.00 | 0.00 | 0.00 | 75 | 1015.3 |
| 20260502232025 | 56 | 180 | 0.0 | 2.0 | 0.00 | 0.00 | 0.00 | 75 | 1015.4 |
| 20260502231836 | 56 | 180 | 0.0 | 2.0 | 0.00 | 0.00 | 0.00 | 75 | 1015.3 |
| 20260502231640 | 56 | 180 | 0.0 | 2.0 | 0.00 | 0.00 | 0.00 | 75 | 1015.3 |
| 20260502231440 | 56 | 0 | 0.0 | 0.0 | 0.00 | 0.00 | 0.00 | 74 | 1015.3 |
| 20260502231245 | 56 | 0 | 0.0 | 0.0 | 0.00 | 0.00 | 0.00 | 74 | 1015.4 |
| 20260502231050 | 56 | 0 | 0.0 | 0.0 | 0.00 | 0.00 | 0.00 | 74 | 1015.4 |
| 20260502230906 | 56 | 0 | 0.0 | 0.0 | 0.00 | 0.00 | 0.00 | 74 | 1015.5 |
| 20260502230722 | 56 | 0 | 0.0 | 0.0 | 0.00 | 0.00 | 0.00 | 74 | 1015.5 |
| 20260502230530 | 56 | 0 | 0.0 | 2.0 | 0.00 | 0.00 | 0.00 | 73 | 1015.5 |
| 20260502230345 | 56 | 0 | 0.0 | 2.0 | 0.00 | 0.00 | 0.00 | 73 | 1015.5 |
| 20260502230155 | 56 | 0 | 0.0 | 2.0 | 0.00 | 0.00 | 0.00 | 74 | 1015.5 |
| 20260502230120 | 56 | 0 | 0.0 | 2.0 | 0.00 | 0.00 | 0.00 | 74 | 1015.5 |
| 20260502225955 | 56 | 0 | 0.0 | 0.0 | 0.00 | 0.00 | 0.00 | 74 | 1015.6 |
| 20260502225815 | 56 | 0 | 0.0 | 1.0 | 0.00 | 0.00 | 0.00 | 74 | 1015.6 |
| 20260502225618 | 56 | 0 | 0.0 | 2.0 | 0.00 | 0.00 | 0.00 | 74 | 1015.6 |
| 20260502225430 | 56 | 0 | 0.0 | 2.0 | 0.00 | 0.00 | 0.00 | 74 | 1015.6 |
| 20260502225243 | 56 | 180 | 0.0 | 2.0 | 0.00 | 0.00 | 0.00 | 74 | 1015.6 |
| 20260502225056 | 56 | 0 | 0.0 | 0.0 | 0.00 | 0.00 | 0.00 | 74 | 1015.6 |
| 20260502224910 | 56 | 0 | 0.0 | 0.0 | 0.00 | 0.00 | 0.00 | 74 | 1015.7 |
| 20260502224720 | 56 | 0 | 0.0 | 0.0 | 0.00 | 0.00 | 0.00 | 73 | 1015.6 |
| 20260502224545 | 56 | 0 | 0.0 | 0.0 | 0.00 | 0.00 | 0.00 | 73 | 1015.7 |
| 20260502224513 | 56 | 0 | 0.0 | 0.0 | 0.00 | 0.00 | 0.00 | 73 | 1015.7 |
| 20260502224350 | 56 | 0 | 0.0 | 0.0 | 0.00 | 0.00 | 0.00 | 73 | 1015.7 |
| 20260502224155 | 56 | 0 | 0.0 | 0.0 | 0.00 | 0.00 | 0.00 | 73 | 1015.6 |
| 20260502223957 | 56 | 180 | 0.0 | 0.0 | 0.00 | 0.00 | 0.00 | 72 | 1015.7 |
| 20260502223817 | 56 | 180 | 0.0 | 0.0 | 0.00 | 0.00 | 0.00 | 72 | 1015.7 |
| 20260502223640 | 56 | 180 | 0.0 | 0.0 | 0.00 | 0.00 | 0.00 | 72 | 1015.7 |
| 20260502223445 | 56 | 180 | 1.0 | 3.0 | 0.00 | 0.00 | 0.00 | 72 | 1015.8 |
| 20260502223310 | 56 | 180 | 1.0 | 3.0 | 0.00 | 0.00 | 0.00 | 71 | 1015.7 |
| 20260502223130 | 56 | 180 | 1.0 | 3.0 | 0.00 | 0.00 | 0.00 | 71 | 1015.7 |
| 20260502222945 | 56 | 180 | 0.0 | 2.0 | 0.00 | 0.00 | 0.00 | 70 | 1015.8 |
| 20260502222831 | 57 | 180 | 0.0 | 2.0 | 0.00 | 0.00 | 0.00 | 71 | 1015.7 |
| 20260502222755 | 57 | 180 | 0.0 | 2.0 | 0.00 | 0.00 | 0.00 | 70 | 1015.8 |
| 20260502222610 | 57 | 180 | 0.0 | 2.0 | 0.00 | 0.00 | 0.00 | 70 | 1015.8 |
| 20260502222426 | 57 | 0 | 0.0 | 0.0 | 0.00 | 0.00 | 0.00 | 69 | 1015.8 |
| 20260502222250 | 57 | 180 | 0.0 | 0.0 | 0.00 | 0.00 | 0.00 | 70 | 1015.8 |
| 20260502222111 | 57 | 180 | 1.0 | 0.0 | 0.00 | 0.00 | 0.00 | 70 | 1015.8 |
| 20260502221920 | 57 | 180 | 1.0 | 3.0 | 0.00 | 0.00 | 0.00 | 71 | 1015.8 |
| 20260502221740 | 57 | 180 | 1.0 | 3.0 | 0.00 | 0.00 | 0.00 | 69 | 1015.8 |
| 20260502221600 | 57 | 180 | 1.0 | 3.0 | 0.00 | 0.00 | 0.00 | 69 | 1015.8 |
| 20260502221415 | 57 | 180 | 1.0 | 3.0 | 0.00 | 0.00 | 0.00 | 68 | 1015.8 |
| 20260502221230 | 57 | 180 | 1.0 | 3.0 | 0.00 | 0.00 | 0.00 | 68 | 1015.8 |
| 20260502221046 | 57 | 180 | 1.0 | 3.0 | 0.00 | 0.00 | 0.00 | 68 | 1015.8 |
| 20260502220900 | 57 | 180 | 0.0 | 2.0 | 0.00 | 0.00 | 0.00 | 68 | 1015.9 |
| 20260502220719 | 57 | 0 | 0.0 | 0.0 | 0.00 | 0.00 | 0.00 | 68 | 1015.8 |
| 20260502220533 | 57 | 0 | 0.0 | 0.0 | 0.00 | 0.00 | 0.00 | 68 | 1015.9 |
| 20260502220345 | 57 | 0 | 0.0 | 0.0 | 0.00 | 0.00 | 0.00 | 68 | 1015.8 |
| 20260502220154 | 57 | 0 | 0.0 | 0.0 | 0.00 | 0.00 | 0.00 | 68 | 1015.8 |
| 20260502220010 | 57 | 0 | 0.0 | 0.0 | 0.00 | 0.00 | 0.00 | 68 | 1015.8 |
| 20260502215822 | 57 | 0 | 0.0 | 0.0 | 0.00 | 0.00 | 0.00 | 68 | 1015.8 |
| 20260502215626 | 57 | 0 | 0.0 | 0.0 | 0.00 | 0.00 | 0.00 | 68 | 1015.8 |
| 20260502215434 | 57 | 0 | 0.0 | 0.0 | 0.00 | 0.00 | 0.00 | 68 | 1015.9 |
| 20260502215233 | 57 | 0 | 0.0 | 0.0 | 0.00 | 0.00 | 0.00 | 68 | 1015.9 |
| 20260502215045 | 57 | 0 | 0.0 | 0.0 | 0.00 | 0.00 | 0.00 | 68 | 1015.9 |
| 20260502214855 | 57 | 0 | 0.0 | 0.0 | 0.00 | 0.00 | 0.00 | 67 | 1015.9 |
| 20260502214705 | 57 | 0 | 0.0 | 0.0 | 0.00 | 0.00 | 0.00 | 67 | 1015.9 |
| 20260502214519 | 57 | 0 | 0.0 | 0.0 | 0.00 | 0.00 | 0.00 | 67 | 1015.9 |
| 20260502214324 | 57 | 0 | 0.0 | 0.0 | 0.00 | 0.00 | 0.00 | 67 | 1015.9 |
| 20260502214140 | 57 | 0 | 0.0 | 0.0 | 0.00 | 0.00 | 0.00 | 67 | 1016.0 |
| 20260502213955 | 57 | 0 | 0.0 | 0.0 | 0.00 | 0.00 | 0.00 | 66 | 1016.0 |
| 20260502213755 | 57 | 0 | 0.0 | 0.0 | 0.00 | 0.00 | 0.00 | 65 | 1016.0 |
| 20260502213618 | 58 | 180 | 0.0 | 0.0 | 0.00 | 0.00 | 0.00 | 65 | 1016.0 |
| 20260502213602 | 58 | 180 | 0.0 | 0.0 | 0.00 | 0.00 | 0.00 | 65 | 1016.0 |
| 20260502213420 | 58 | 180 | 0.0 | 0.0 | 0.00 | 0.00 | 0.00 | 64 | 1016.0 |
| 20260502213230 | 58 | 180 | 0.0 | 0.0 | 0.00 | 0.00 | 0.00 | 63 | 1016.1 |
| 20260502213034 | 58 | 180 | 0.0 | 2.0 | 0.00 | 0.00 | 0.00 | 62 | 1016.1 |
| 20260502212841 | 58 | 180 | 0.0 | 2.0 | 0.00 | 0.00 | 0.00 | 62 | 1016.1 |
| 20260502212646 | 57 | 0 | 0.0 | 2.0 | 0.00 | 0.00 | 0.00 | 63 | 1016.0 |
| 20260502212505 | 58 | 0 | 0.0 | 0.0 | 0.00 | 0.00 | 0.00 | 64 | 1016.1 |
| 20260502212315 | 58 | 0 | 0.0 | 0.0 | 0.00 | 0.00 | 0.00 | 64 | 1016.1 |
| 20260502212114 | 58 | 0 | 0.0 | 0.0 | 0.00 | 0.00 | 0.00 | 63 | 1016.1 |
| 20260502211938 | 58 | 0 | 0.0 | 0.0 | 0.00 | 0.00 | 0.00 | 64 | 1016.2 |
| 20260502211750 | 58 | 0 | 0.0 | 0.0 | 0.00 | 0.00 | 0.00 | 63 | 1016.2 |
| 20260502211600 | 58 | 0 | 0.0 | 0.0 | 0.00 | 0.00 | 0.00 | 63 | 1016.2 |
| 20260502211420 | 58 | 0 | 0.0 | 0.0 | 0.00 | 0.00 | 0.00 | 63 | 1016.2 |
| 20260502211226 | 58 | 0 | 0.0 | 0.0 | 0.00 | 0.00 | 0.00 | 62 | 1016.2 |
| 20260502211034 | 58 | 0 | 0.0 | 0.0 | 0.00 | 0.00 | 0.00 | 62 | 1016.2 |
| 20260502210836 | 58 | 0 | 0.0 | 0.0 | 0.00 | 0.00 | 0.00 | 62 | 1016.3 |
| 20260502210650 | 58 | 0 | 0.0 | 0.0 | 0.00 | 0.00 | 0.00 | 62 | 1016.3 |
| 20260502210505 | 58 | 0 | 0.0 | 0.0 | 0.00 | 0.00 | 0.00 | 63 | 1016.3 |
| 20260502210306 | 58 | 0 | 0.0 | 0.0 | 0.00 | 0.00 | 0.00 | 62 | 1016.3 |
| 20260502210125 | 59 | 0 | 0.0 | 0.0 | 0.00 | 0.00 | 0.00 | 62 | 1016.4 |
| 20260502205940 | 59 | 0 | 0.0 | 0.0 | 0.00 | 0.00 | 0.00 | 62 | 1016.3 |
| 20260502205800 | 59 | 0 | 0.0 | 0.0 | 0.00 | 0.00 | 0.00 | 61 | 1016.3 |
| 20260502205600 | 59 | 0 | 0.0 | 0.0 | 0.00 | 0.00 | 0.00 | 61 | 1016.3 |
| 20260502205420 | 59 | 0 | 0.0 | 0.0 | 0.00 | 0.00 | 0.00 | 61 | 1016.3 |
| 20260502205235 | 59 | 0 | 0.0 | 0.0 | 0.00 | 0.00 | 0.00 | 61 | 1016.3 |
| 20260502205055 | 59 | 0 | 0.0 | 0.0 | 0.00 | 0.00 | 0.00 | 61 | 1016.3 |
| 20260502204909 | 59 | 0 | 0.0 | 0.0 | 0.00 | 0.00 | 0.00 | 61 | 1016.4 |
| 20260502204715 | 59 | 0 | 0.0 | 0.0 | 0.00 | 0.00 | 0.00 | 61 | 1016.4 |
| 20260502204526 | 59 | 0 | 0.0 | 0.0 | 0.00 | 0.00 | 0.00 | 61 | 1016.4 |
| 20260502204515 | 59 | 0 | 0.0 | 0.0 | 0.00 | 0.00 | 0.00 | 61 | 1016.3 |
| 20260502204330 | 59 | 0 | 0.0 | 0.0 | 0.00 | 0.00 | 0.00 | 61 | 1016.4 |
| 20260502204140 | 59 | 0 | 0.0 | 0.0 | 0.00 | 0.00 | 0.00 | 60 | 1016.4 |
| 20260502203945 | 59 | 0 | 0.0 | 0.0 | 0.00 | 0.00 | 0.00 | 60 | 1016.4 |
| 20260502203810 | 59 | 0 | 0.0 | 0.0 | 0.00 | 0.00 | 0.00 | 61 | 1016.4 |
| 20260502203610 | 60 | 0 | 0.0 | 0.0 | 0.00 | 0.00 | 0.00 | 61 | 1016.4 |
| 20260502203432 | 60 | 0 | 0.0 | 0.0 | 0.00 | 0.00 | 0.00 | 60 | 1016.4 |
| 20260502203240 | 60 | 0 | 0.0 | 0.0 | 0.00 | 0.00 | 0.00 | 60 | 1016.4 |
| 20260502203055 | 60 | 0 | 0.0 | 0.0 | 0.00 | 0.00 | 0.00 | 60 | 1016.4 |
| 20260502202912 | 60 | 0 | 0.0 | 0.0 | 0.00 | 0.00 | 0.00 | 60 | 1016.4 |
| 20260502202831 | 60 | 0 | 0.0 | 0.0 | 0.00 | 0.00 | 0.00 | 59 | 1016.5 |
| 20260502202715 | 60 | 0 | 0.0 | 0.0 | 0.00 | 0.00 | 0.00 | 59 | 1016.4 |
| 20260502202534 | 60 | 0 | 0.0 | 0.0 | 0.00 | 0.00 | 0.00 | 58 | 1016.5 |
| 20260502202345 | 60 | 0 | 0.0 | 0.0 | 0.00 | 0.00 | 0.00 | 58 | 1016.4 |
| 20260502202150 | 60 | 0 | 0.0 | 0.0 | 0.00 | 0.00 | 0.00 | 59 | 1016.5 |
| 20260502202010 | 60 | 0 | 0.0 | 0.0 | 0.00 | 0.00 | 0.00 | 58 | 1016.4 |
| 20260502201830 | 60 | 0 | 0.0 | 0.0 | 0.00 | 0.00 | 0.00 | 58 | 1016.5 |
| 20260502201655 | 61 | 0 | 0.0 | 0.0 | 0.00 | 0.00 | 0.00 | 58 | 1016.5 |
| 20260502201505 | 61 | 0 | 0.0 | 0.0 | 0.00 | 0.00 | 0.00 | 57 | 1016.5 |
| 20260502201310 | 61 | 0 | 0.0 | 0.0 | 0.00 | 0.00 | 0.00 | 57 | 1016.6 |
| 20260502201124 | 61 | 0 | 0.0 | 0.0 | 0.00 | 0.00 | 0.00 | 57 | 1016.6 |
| 20260502201115 | 61 | 0 | 0.0 | 0.0 | 0.00 | 0.00 | 0.00 | 57 | 1016.6 |
| 20260502200916 | 61 | 0 | 0.0 | 0.0 | 0.00 | 0.00 | 0.00 | 57 | 1016.6 |
| 20260502200730 | 61 | 0 | 0.0 | 0.0 | 0.00 | 0.00 | 0.00 | 56 | 1016.5 |
| 20260502200550 | 61 | 0 | 0.0 | 0.0 | 0.00 | 0.00 | 0.00 | 56 | 1016.5 |
| 20260502200355 | 61 | 0 | 0.0 | 0.0 | 0.00 | 0.00 | 0.00 | 56 | 1016.6 |
| 20260502200205 | 62 | 0 | 0.0 | 0.0 | 0.00 | 0.00 | 0.00 | 56 | 1016.6 |
| 20260502200016 | 62 | 0 | 0.0 | 0.0 | 0.00 | 0.00 | 0.00 | 55 | 1016.6 |
| 20260502195834 | 62 | 0 | 0.0 | 0.0 | 0.00 | 0.00 | 0.00 | 54 | 1016.6 |
| 20260502195655 | 62 | 0 | 0.0 | 0.0 | 0.00 | 0.00 | 0.00 | 54 | 1016.6 |
| 20260502195516 | 62 | 0 | 0.0 | 0.0 | 0.00 | 0.00 | 0.00 | 54 | 1016.6 |
| 20260502195330 | 62 | 0 | 0.0 | 0.0 | 0.00 | 0.00 | 0.00 | 53 | 1016.7 |
| 20260502195144 | 63 | 0 | 0.0 | 0.0 | 0.00 | 0.00 | 0.00 | 53 | 1016.7 |
| 20260502194953 | 63 | 0 | 0.0 | 0.0 | 0.00 | 0.00 | 0.00 | 52 | 1016.7 |
| 20260502194755 | 63 | 180 | 0.0 | 0.0 | 0.00 | 0.00 | 0.00 | 52 | 1016.7 |
| 20260502194605 | 63 | 180 | 1.0 | 2.0 | 0.00 | 0.00 | 0.00 | 51 | 1016.7 |
| 20260502194415 | 63 | 180 | 1.0 | 2.0 | 0.00 | 0.00 | 0.00 | 51 | 1016.7 |
| 20260502194220 | 63 | 180 | 1.0 | 3.0 | 0.00 | 0.00 | 0.00 | 51 | 1016.7 |
| 20260502194040 | 64 | 180 | 1.0 | 3.0 | 0.00 | 0.00 | 0.00 | 51 | 1016.7 |
| 20260502193840 | 64 | 180 | 0.0 | 3.0 | 0.00 | 0.00 | 0.00 | 51 | 1016.6 |
| 20260502193645 | 64 | 0 | 0.0 | 2.0 | 0.00 | 0.00 | 0.00 | 51 | 1016.8 |
| 20260502193446 | 64 | 0 | 0.0 | 0.0 | 0.00 | 0.00 | 0.00 | 51 | 1016.8 |
| 20260502193320 | 64 | 0 | 0.0 | 0.0 | 0.00 | 0.00 | 0.00 | 51 | 1016.7 |
| 20260502193140 | 64 | 0 | 0.0 | 0.0 | 0.00 | 0.00 | 0.00 | 51 | 1016.8 |
| 20260502193000 | 64 | 0 | 0.0 | 0.0 | 0.00 | 0.00 | 0.00 | 51 | 1016.7 |
| 20260502192815 | 64 | 0 | 0.0 | 0.0 | 0.00 | 0.00 | 0.00 | 50 | 1016.7 |
| 20260502192635 | 65 | 0 | 0.0 | 0.0 | 0.00 | 0.00 | 0.00 | 50 | 1016.7 |
| 20260502192434 | 65 | 0 | 0.0 | 0.0 | 0.00 | 0.00 | 0.00 | 49 | 1016.7 |
| 20260502192245 | 65 | 0 | 0.0 | 0.0 | 0.00 | 0.00 | 0.00 | 49 | 1016.7 |
| 20260502192110 | 65 | 0 | 0.0 | 0.0 | 0.00 | 0.00 | 0.00 | 48 | 1016.8 |
| 20260502191920 | 65 | 0 | 0.0 | 0.0 | 0.00 | 0.00 | 0.00 | 48 | 1016.8 |
| 20260502191806 | 65 | 0 | 0.0 | 0.0 | 0.00 | 0.00 | 0.00 | 48 | 1016.7 |
| 20260502191740 | 65 | 0 | 0.0 | 0.0 | 0.00 | 0.00 | 0.00 | 48 | 1016.7 |
| 20260502191545 | 66 | 0 | 0.0 | 0.0 | 0.00 | 0.00 | 0.00 | 46 | 1016.7 |
| 20260502191400 | 66 | 0 | 0.0 | 0.0 | 0.00 | 0.00 | 0.00 | 47 | 1016.7 |
| 20260502191220 | 66 | 0 | 0.0 | 0.0 | 0.00 | 0.00 | 0.00 | 47 | 1016.7 |
| 20260502191040 | 66 | 0 | 0.0 | 0.0 | 0.00 | 0.00 | 0.00 | 46 | 1016.7 |
| 20260502190845 | 66 | 0 | 0.0 | 0.0 | 0.00 | 0.00 | 0.00 | 46 | 1016.7 |
| 20260502190652 | 67 | 0 | 0.0 | 0.0 | 0.00 | 0.00 | 0.00 | 45 | 1016.7 |
| 20260502190500 | 67 | 0 | 0.0 | 0.0 | 0.00 | 0.00 | 0.00 | 46 | 1016.8 |
| 20260502190300 | 67 | 0 | 0.0 | 0.0 | 0.00 | 0.00 | 0.00 | 45 | 1016.8 |
| 20260502190141 | 67 | 0 | 0.0 | 0.0 | 0.00 | 0.00 | 0.00 | 45 | 1016.7 |
| 20260502190100 | 67 | 0 | 0.0 | 0.0 | 0.00 | 0.00 | 0.00 | 45 | 1016.7 |
| 20260502185905 | 68 | 0 | 0.0 | 0.0 | 0.00 | 0.00 | 0.00 | 44 | 1016.8 |
| 20260502185713 | 68 | 0 | 0.0 | 0.0 | 0.00 | 0.00 | 0.00 | 44 | 1016.8 |
| 20260502185535 | 68 | 0 | 0.0 | 0.0 | 0.00 | 0.00 | 0.00 | 44 | 1016.8 |
| 20260502185340 | 69 | 0 | 0.0 | 0.0 | 0.00 | 0.00 | 0.00 | 44 | 1016.9 |
| 20260502185155 | 69 | 0 | 0.0 | 0.0 | 0.00 | 0.00 | 0.00 | 44 | 1016.8 |
| 20260502185005 | 69 | 0 | 0.0 | 0.0 | 0.00 | 0.00 | 0.00 | 44 | 1016.8 |
| 20260502184810 | 70 | 0 | 0.0 | 0.0 | 0.00 | 0.00 | 0.00 | 43 | 1016.8 |
| 20260502184635 | 70 | 0 | 0.0 | 0.0 | 0.00 | 0.00 | 0.00 | 43 | 1016.8 |
| 20260502184445 | 70 | 0 | 0.0 | 0.0 | 0.00 | 0.00 | 0.00 | 42 | 1016.8 |
| 20260502184412 | 71 | 0 | 0.0 | 0.0 | 0.00 | 0.00 | 0.00 | 42 | 1016.7 |
| 20260502184256 | 71 | 0 | 0.0 | 0.0 | 0.00 | 0.00 | 0.00 | 41 | 1016.8 |
| 20260502184120 | 71 | 0 | 0.0 | 0.0 | 0.00 | 0.00 | 0.00 | 41 | 1016.7 |
| 20260502183934 | 72 | 0 | 0.0 | 0.0 | 0.00 | 0.00 | 0.00 | 39 | 1016.8 |
| 20260502183743 | 72 | 0 | 0.0 | 0.0 | 0.00 | 0.00 | 0.00 | 39 | 1016.7 |
| 20260502183545 | 72 | 0 | 0.0 | 0.0 | 0.00 | 0.00 | 0.00 | 35 | 1016.7 |
| 20260502183403 | 72 | 180 | 0.0 | 0.0 | 0.00 | 0.00 | 0.00 | 37 | 1016.8 |
| 20260502183210 | 72 | 180 | 0.0 | 0.0 | 0.00 | 0.00 | 0.00 | 35 | 1016.7 |
| 20260502183023 | 73 | 180 | 0.0 | 0.0 | 0.00 | 0.00 | 0.00 | 34 | 1016.7 |
| 20260502182845 | 73 | 180 | 0.0 | 2.0 | 0.00 | 0.00 | 0.00 | 34 | 1016.7 |
| 20260502182705 | 73 | 180 | 0.0 | 2.0 | 0.00 | 0.00 | 0.00 | 34 | 1016.7 |
| 20260502182518 | 73 | 180 | 1.0 | 2.0 | 0.00 | 0.00 | 0.00 | 34 | 1016.6 |
| 20260502182340 | 74 | 180 | 1.0 | 2.0 | 0.00 | 0.00 | 0.00 | 34 | 1016.7 |
| 20260502182200 | 74 | 202 | 2.0 | 3.0 | 0.00 | 0.00 | 0.00 | 33 | 1016.7 |
| 20260502182000 | 74 | 202 | 2.0 | 3.0 | 0.00 | 0.00 | 0.00 | 33 | 1016.6 |
| 20260502181803 | 74 | 202 | 2.0 | 3.0 | 0.00 | 0.00 | 0.00 | 33 | 1016.7 |
| 20260502181610 | 74 | 180 | 2.0 | 3.0 | 0.00 | 0.00 | 0.00 | 33 | 1016.7 |
| 20260502181415 | 75 | 202 | 2.0 | 3.0 | 0.00 | 0.00 | 0.00 | 33 | 1016.7 |
| 20260502181213 | 75 | 248 | 2.0 | 3.0 | 0.00 | 0.00 | 0.00 | 32 | 1016.7 |
| 20260502181017 | 75 | 248 | 2.0 | 2.0 | 0.00 | 0.00 | 0.00 | 32 | 1016.7 |
| 20260502180830 | 75 | 248 | 2.0 | 3.0 | 0.00 | 0.00 | 0.00 | 33 | 1016.8 |
| 20260502180650 | 75 | 225 | 2.0 | 4.0 | 0.00 | 0.00 | 0.00 | 33 | 1016.7 |
| 20260502180515 | 76 | 225 | 2.0 | 4.0 | 0.00 | 0.00 | 0.00 | 32 | 1016.8 |
| 20260502180325 | 76 | 225 | 2.0 | 4.0 | 0.00 | 0.00 | 0.00 | 32 | 1016.8 |
| 20260502180135 | 76 | 202 | 2.0 | 3.0 | 0.00 | 0.00 | 0.00 | 31 | 1016.7 |
| 20260502170407 | 80 | 225 | 5.0 | 8.0 | 0.00 | 0.00 | 0.00 | 26 | 1016.8 |
| 20260502170405 | 80 | 225 | 5.0 | 8.0 | 0.00 | 0.00 | 0.00 | 26 | 1016.8 |
| 20260502170230 | 80 | 202 | 6.0 | 10.0 | 0.00 | 0.00 | 0.00 | 25 | 1016.8 |
| 20260502164238 | 81 | 225 | 5.0 | 8.0 | 0.00 | 0.00 | 0.00 | 25 | 1016.8 |
| 20260502164040 | 80 | 202 | 5.0 | 7.0 | 0.00 | 0.00 | 0.00 | 25 | 1016.9 |
| 20260502163853 | 80 | 202 | 5.0 | 7.0 | 0.00 | 0.00 | 0.00 | 25 | 1016.8 |
| 20260502163655 | 80 | 270 | 6.0 | 7.0 | 0.00 | 0.00 | 0.00 | 24 | 1016.9 |
| 20260502163505 | 80 | 202 | 6.0 | 7.0 | 0.00 | 0.00 | 0.00 | 25 | 1016.9 |
| 20260502163303 | 80 | 180 | 6.0 | 9.0 | 0.00 | 0.00 | 0.00 | 24 | 1017.0 |
| 20260502163105 | 80 | 202 | 6.0 | 10.0 | 0.00 | 0.00 | 0.00 | 24 | 1017.1 |
| 20260502162932 | 80 | 135 | 6.0 | 10.0 | 0.00 | 0.00 | 0.00 | 24 | 1017.0 |
| 20260502162920 | 80 | 135 | 6.0 | 10.0 | 0.00 | 0.00 | 0.00 | 24 | 1017.1 |
| 20260502162735 | 80 | 225 | 6.0 | 10.0 | 0.00 | 0.00 | 0.00 | 25 | 1017.1 |
| 20260502162549 | 81 | 202 | 6.0 | 10.0 | 0.00 | 0.00 | 0.00 | 26 | 1017.1 |
| 20260502162356 | 81 | 180 | 5.0 | 9.0 | 0.00 | 0.00 | 0.00 | 25 | 1017.1 |
| 20260502162215 | 81 | 248 | 5.0 | 7.0 | 0.00 | 0.00 | 0.00 | 25 | 1017.1 |
| 20260502162012 | 81 | 202 | 6.0 | 8.0 | 0.00 | 0.00 | 0.00 | 24 | 1017.2 |
| 20260502161834 | 81 | 202 | 5.0 | 13.0 | 0.00 | 0.00 | 0.00 | 25 | 1017.2 |
| 20260502161645 | 81 | 202 | 5.0 | 13.0 | 0.00 | 0.00 | 0.00 | 24 | 1017.2 |
| 20260502161510 | 81 | 180 | 6.0 | 13.0 | 0.00 | 0.00 | 0.00 | 23 | 1017.2 |
| 20260502161408 | 81 | 158 | 5.0 | 8.0 | 0.00 | 0.00 | 0.00 | 25 | 1017.2 |
| 20260502161320 | 81 | 315 | 5.0 | 9.0 | 0.00 | 0.00 | 0.00 | 25 | 1017.2 |
| 20260502161120 | 81 | 270 | 6.0 | 9.0 | 0.00 | 0.00 | 0.00 | 24 | 1017.2 |
| 20260502160940 | 81 | 202 | 5.0 | 7.0 | 0.00 | 0.00 | 0.00 | 25 | 1017.2 |
| 20260502160755 | 81 | 202 | 5.0 | 10.0 | 0.00 | 0.00 | 0.00 | 24 | 1017.3 |
| 20260502160615 | 81 | 180 | 6.0 | 10.0 | 0.00 | 0.00 | 0.00 | 24 | 1017.3 |
| 20260502160420 | 81 | 202 | 6.0 | 10.0 | 0.00 | 0.00 | 0.00 | 25 | 1017.3 |
| 20260502160220 | 81 | 180 | 6.0 | 7.0 | 0.00 | 0.00 | 0.00 | 25 | 1017.4 |
| 20260502152316 | 81 | 202 | 5.0 | 9.0 | 0.00 | 0.00 | 0.00 | 24 | 1017.8 |
| 20260502152255 | 81 | 202 | 5.0 | 9.0 | 0.00 | 0.00 | 0.00 | 24 | 1017.8 |
| 20260502152115 | 81 | 180 | 5.0 | 6.0 | 0.00 | 0.00 | 0.00 | 24 | 1017.8 |
| 20260502151923 | 81 | 158 | 5.0 | 6.0 | 0.00 | 0.00 | 0.00 | 25 | 1017.8 |
| 20260502151745 | 81 | 225 | 6.0 | 6.0 | 0.00 | 0.00 | 0.00 | 24 | 1017.8 |
| 20260502151605 | 81 | 180 | 6.0 | 6.0 | 0.00 | 0.00 | 0.00 | 24 | 1017.9 |
| 20260502151420 | 81 | 248 | 6.0 | 7.0 | 0.00 | 0.00 | 0.00 | 26 | 1017.9 |
| 20260502151235 | 81 | 270 | 7.0 | 11.0 | 0.00 | 0.00 | 0.00 | 26 | 1018.0 |
| 20260502151035 | 81 | 225 | 7.0 | 11.0 | 0.00 | 0.00 | 0.00 | 27 | 1018.1 |
| 20260502150855 | 81 | 248 | 7.0 | 11.0 | 0.00 | 0.00 | 0.00 | 26 | 1018.1 |
| 20260502150655 | 82 | 248 | 6.0 | 12.0 | 0.00 | 0.00 | 0.00 | 25 | 1018.1 |
| 20260502150631 | 82 | 202 | 6.0 | 12.0 | 0.00 | 0.00 | 0.00 | 25 | 1018.1 |
| 20260502150506 | 82 | 68 | 6.0 | 11.0 | 0.00 | 0.00 | 0.00 | 25 | 1018.1 |
| 20260502150315 | 82 | 202 | 5.0 | 9.0 | 0.00 | 0.00 | 0.00 | 26 | 1018.2 |
| 20260502150135 | 82 | 180 | 5.0 | 7.0 | 0.00 | 0.00 | 0.00 | 26 | 1018.2 |
| 20260502130705 | 79 | 202 | 6.0 | 9.0 | 0.00 | 0.00 | 0.00 | 29 | 1019.9 |
| 20260502130515 | 80 | 225 | 6.0 | 10.0 | 0.00 | 0.00 | 0.00 | 28 | 1020.0 |
| 20260502130330 | 80 | 202 | 6.0 | 10.0 | 0.00 | 0.00 | 0.00 | 28 | 1020.1 |
| 20260502130133 | 79 | 180 | 5.0 | 7.0 | 0.00 | 0.00 | 0.00 | 28 | 1020.0 |
| 20260502123640 | 78 | 202 | 6.0 | 9.0 | 0.00 | 0.00 | 0.00 | 29 | 1020.5 |
| 20260502123455 | 78 | 225 | 6.0 | 9.0 | 0.00 | 0.00 | 0.00 | 30 | 1020.5 |
| 20260502123310 | 78 | 248 | 6.0 | 9.0 | 0.00 | 0.00 | 0.00 | 30 | 1020.5 |
| 20260502123110 | 78 | 202 | 6.0 | 9.0 | 0.00 | 0.00 | 0.00 | 29 | 1020.5 |
| 20260502122925 | 78 | 225 | 6.0 | 8.0 | 0.00 | 0.00 | 0.00 | 30 | 1020.5 |
| 20260502122724 | 78 | 225 | 6.0 | 9.0 | 0.00 | 0.00 | 0.00 | 30 | 1020.5 |
| 20260502122537 | 77 | 202 | 6.0 | 10.0 | 0.00 | 0.00 | 0.00 | 29 | 1020.6 |
| 20260502122340 | 77 | 225 | 7.0 | 10.0 | 0.00 | 0.00 | 0.00 | 30 | 1020.7 |
| 20260502122205 | 77 | 202 | 7.0 | 10.0 | 0.00 | 0.00 | 0.00 | 31 | 1020.7 |
| 20260502122015 | 77 | 225 | 7.0 | 11.0 | 0.00 | 0.00 | 0.00 | 30 | 1020.7 |
| 20260502121818 | 77 | 225 | 6.0 | 11.0 | 0.00 | 0.00 | 0.00 | 30 | 1020.7 |
| 20260502121635 | 77 | 202 | 6.0 | 11.0 | 0.00 | 0.00 | 0.00 | 30 | 1020.8 |
| 20260502121443 | 77 | 202 | 6.0 | 11.0 | 0.00 | 0.00 | 0.00 | 31 | 1020.7 |
| 20260502121351 | 77 | 202 | 6.0 | 11.0 | 0.00 | 0.00 | 0.00 | 30 | 1020.7 |
| 20260502121300 | 77 | 225 | 6.0 | 11.0 | 0.00 | 0.00 | 0.00 | 30 | 1020.8 |
| 20260502121106 | 77 | 248 | 6.0 | 9.0 | 0.00 | 0.00 | 0.00 | 30 | 1020.8 |
| 20260502120924 | 77 | 180 | 6.0 | 9.0 | 0.00 | 0.00 | 0.00 | 31 | 1020.8 |
| 20260502120735 | 77 | 248 | 6.0 | 9.0 | 0.00 | 0.00 | 0.00 | 31 | 1020.9 |
| 20260502120545 | 78 | 202 | 6.0 | 8.0 | 0.00 | 0.00 | 0.00 | 30 | 1020.9 |
| 20260502120355 | 77 | 248 | 5.0 | 15.0 | 0.00 | 0.00 | 0.00 | 31 | 1020.9 |
| 20260502120206 | 78 | 202 | 5.0 | 15.0 | 0.00 | 0.00 | 0.00 | 31 | 1021.0 |
| 20260502115840 | 77 | 202 | 6.0 | 15.0 | 0.00 | 0.00 | 0.00 | 30 | 1020.9 |
| 20260502115650 | 77 | 248 | 5.0 | 7.0 | 0.00 | 0.00 | 0.00 | 30 | 1021.1 |
| 20260502115607 | 77 | 225 | 5.0 | 7.0 | 0.00 | 0.00 | 0.00 | 30 | 1020.9 |
| 20260502115452 | 77 | 202 | 5.0 | 8.0 | 0.00 | 0.00 | 0.00 | 31 | 1021.0 |
| 20260502115310 | 77 | 248 | 6.0 | 8.0 | 0.00 | 0.00 | 0.00 | 31 | 1021.0 |
| 20260502115125 | 77 | 202 | 6.0 | 10.0 | 0.00 | 0.00 | 0.00 | 32 | 1021.2 |
| 20260502114925 | 77 | 292 | 6.0 | 10.0 | 0.00 | 0.00 | 0.00 | 30 | 1021.2 |
| 20260502114725 | 77 | 202 | 6.0 | 10.0 | 0.00 | 0.00 | 0.00 | 30 | 1021.2 |
| 20260502114524 | 77 | 202 | 6.0 | 8.0 | 0.00 | 0.00 | 0.00 | 31 | 1021.2 |
| 20260502114336 | 77 | 248 | 6.0 | 8.0 | 0.00 | 0.00 | 0.00 | 31 | 1021.2 |
| 20260502114157 | 77 | 225 | 6.0 | 9.0 | 0.00 | 0.00 | 0.00 | 31 | 1021.2 |
| 20260502114010 | 77 | 248 | 6.0 | 10.0 | 0.00 | 0.00 | 0.00 | 31 | 1021.2 |
| 20260502113916 | 77 | 248 | 6.0 | 10.0 | 0.00 | 0.00 | 0.00 | 32 | 1021.3 |
| 20260502113829 | 77 | 225 | 6.0 | 10.0 | 0.00 | 0.00 | 0.00 | 30 | 1021.3 |
| 20260502113645 | 77 | 225 | 6.0 | 10.0 | 0.00 | 0.00 | 0.00 | 32 | 1021.3 |
| 20260502113450 | 77 | 248 | 7.0 | 9.0 | 0.00 | 0.00 | 0.00 | 30 | 1021.4 |
| 20260502113255 | 77 | 158 | 7.0 | 10.0 | 0.00 | 0.00 | 0.00 | 31 | 1021.4 |
| 20260502113105 | 77 | 225 | 7.0 | 10.0 | 0.00 | 0.00 | 0.00 | 31 | 1021.4 |
| 20260502112917 | 77 | 180 | 7.0 | 11.0 | 0.00 | 0.00 | 0.00 | 30 | 1021.3 |
| 20260502112735 | 77 | 180 | 6.0 | 11.0 | 0.00 | 0.00 | 0.00 | 31 | 1021.3 |
| 20260502112545 | 77 | 202 | 6.0 | 11.0 | 0.00 | 0.00 | 0.00 | 31 | 1021.4 |
| 20260502112355 | 77 | 248 | 6.0 | 11.0 | 0.00 | 0.00 | 0.00 | 31 | 1021.4 |
| 20260502112319 | 77 | 225 | 6.0 | 9.0 | 0.00 | 0.00 | 0.00 | 31 | 1021.4 |
| 20260502112205 | 77 | 225 | 6.0 | 9.0 | 0.00 | 0.00 | 0.00 | 31 | 1021.5 |
| 20260502112020 | 77 | 180 | 5.0 | 9.0 | 0.00 | 0.00 | 0.00 | 31 | 1021.6 |
| 20260502111832 | 77 | 225 | 6.0 | 9.0 | 0.00 | 0.00 | 0.00 | 32 | 1021.6 |
| 20260502111639 | 77 | 202 | 6.0 | 9.0 | 0.00 | 0.00 | 0.00 | 31 | 1021.6 |
| 20260502111439 | 77 | 225 | 5.0 | 8.0 | 0.00 | 0.00 | 0.00 | 30 | 1021.6 |
| 20260502111253 | 76 | 158 | 5.0 | 9.0 | 0.00 | 0.00 | 0.00 | 31 | 1021.5 |
| 20260502111051 | 76 | 225 | 5.0 | 9.0 | 0.00 | 0.00 | 0.00 | 33 | 1021.6 |
| 20260502110855 | 76 | 202 | 5.0 | 8.0 | 0.00 | 0.00 | 0.00 | 31 | 1021.6 |
| 20260502110715 | 76 | 202 | 5.0 | 8.0 | 0.00 | 0.00 | 0.00 | 31 | 1021.6 |
| 20260502110556 | 76 | 202 | 5.0 | 8.0 | 0.00 | 0.00 | 0.00 | 31 | 1021.7 |
| 20260502110536 | 76 | 202 | 5.0 | 8.0 | 0.00 | 0.00 | 0.00 | 30 | 1021.7 |
| 20260502110355 | 76 | 248 | 5.0 | 8.0 | 0.00 | 0.00 | 0.00 | 31 | 1021.7 |
| 20260502110215 | 76 | 270 | 5.0 | 8.0 | 0.00 | 0.00 | 0.00 | 32 | 1021.8 |
| 20260502110035 | 76 | 202 | 5.0 | 8.0 | 0.00 | 0.00 | 0.00 | 32 | 1021.8 |
| 20260502105840 | 76 | 180 | 5.0 | 8.0 | 0.00 | 0.00 | 0.00 | 33 | 1021.8 |
| 20260502105648 | 76 | 225 | 5.0 | 7.0 | 0.00 | 0.00 | 0.00 | 32 | 1021.8 |
| 20260502105453 | 76 | 202 | 5.0 | 7.0 | 0.00 | 0.00 | 0.00 | 33 | 1021.8 |
| 20260502105300 | 76 | 180 | 5.0 | 6.0 | 0.00 | 0.00 | 0.00 | 32 | 1021.8 |
| 20260502105123 | 76 | 248 | 5.0 | 9.0 | 0.00 | 0.00 | 0.00 | 32 | 1021.8 |
| 20260502104956 | 76 | 225 | 6.0 | 9.0 | 0.00 | 0.00 | 0.00 | 33 | 1021.8 |
| 20260502104927 | 76 | 180 | 6.0 | 9.0 | 0.00 | 0.00 | 0.00 | 32 | 1021.9 |
| 20260502104730 | 76 | 248 | 6.0 | 10.0 | 0.00 | 0.00 | 0.00 | 32 | 1021.9 |
| 20260502104535 | 76 | 248 | 6.0 | 10.0 | 0.00 | 0.00 | 0.00 | 32 | 1021.9 |
| 20260502104335 | 76 | 248 | 6.0 | 10.0 | 0.00 | 0.00 | 0.00 | 32 | 1021.9 |
| 20260502104150 | 76 | 248 | 6.0 | 9.0 | 0.00 | 0.00 | 0.00 | 32 | 1021.9 |
| 20260502104000 | 76 | 202 | 6.0 | 9.0 | 0.00 | 0.00 | 0.00 | 33 | 1021.9 |
| 20260502103810 | 75 | 225 | 6.0 | 9.0 | 0.00 | 0.00 | 0.00 | 33 | 1021.9 |
| 20260502103612 | 75 | 158 | 5.0 | 8.0 | 0.00 | 0.00 | 0.00 | 32 | 1021.9 |
| 20260502103415 | 75 | 180 | 5.0 | 8.0 | 0.00 | 0.00 | 0.00 | 32 | 1022.0 |
| 20260502102650 | 74 | 158 | 6.0 | 11.0 | 0.00 | 0.00 | 0.00 | 33 | 1022.1 |
| 20260502102455 | 74 | 225 | 6.0 | 11.0 | 0.00 | 0.00 | 0.00 | 33 | 1022.1 |
| 20260502102300 | 74 | 225 | 6.0 | 11.0 | 0.00 | 0.00 | 0.00 | 34 | 1022.2 |
| 20260502102110 | 74 | 202 | 6.0 | 10.0 | 0.00 | 0.00 | 0.00 | 34 | 1022.3 |
| 20260502101920 | 74 | 292 | 6.0 | 8.0 | 0.00 | 0.00 | 0.00 | 34 | 1022.2 |
| 20260502101740 | 74 | 202 | 7.0 | 11.0 | 0.00 | 0.00 | 0.00 | 34 | 1022.2 |
| 20260502101545 | 73 | 248 | 7.0 | 11.0 | 0.00 | 0.00 | 0.00 | 34 | 1022.2 |
| 20260502101538 | 73 | 248 | 7.0 | 11.0 | 0.00 | 0.00 | 0.00 | 33 | 1022.2 |
| 20260502101400 | 73 | 248 | 7.0 | 11.0 | 0.00 | 0.00 | 0.00 | 33 | 1022.3 |
| 20260502101200 | 73 | 225 | 8.0 | 10.0 | 0.00 | 0.00 | 0.00 | 33 | 1022.4 |
| 20260502101010 | 73 | 225 | 7.0 | 10.0 | 0.00 | 0.00 | 0.00 | 33 | 1022.5 |
| 20260502100827 | 73 | 248 | 7.0 | 10.0 | 0.00 | 0.00 | 0.00 | 34 | 1022.4 |
| 20260502100645 | 73 | 202 | 7.0 | 10.0 | 0.00 | 0.00 | 0.00 | 34 | 1022.4 |
| 20260502100505 | 73 | 248 | 7.0 | 10.0 | 0.00 | 0.00 | 0.00 | 35 | 1022.4 |
| 20260502100330 | 73 | 225 | 7.0 | 10.0 | 0.00 | 0.00 | 0.00 | 34 | 1022.4 |
| 20260502100135 | 73 | 225 | 7.0 | 12.0 | 0.00 | 0.00 | 0.00 | 36 | 1022.5 |
| 20260502091405 | 73 | 225 | 6.0 | 13.0 | 0.00 | 0.00 | 0.00 | 37 | 1023.0 |
| 20260502091208 | 73 | 202 | 6.0 | 13.0 | 0.00 | 0.00 | 0.00 | 36 | 1023.0 |
| 20260502091025 | 73 | 180 | 6.0 | 13.0 | 0.00 | 0.00 | 0.00 | 36 | 1023.0 |
| 20260502090850 | 73 | 202 | 5.0 | 10.0 | 0.00 | 0.00 | 0.00 | 35 | 1023.1 |
| 20260502090705 | 73 | 248 | 5.0 | 10.0 | 0.00 | 0.00 | 0.00 | 35 | 1023.1 |
| 20260502090631 | 73 | 248 | 5.0 | 10.0 | 0.00 | 0.00 | 0.00 | 36 | 1023.1 |
| 20260502090505 | 73 | 180 | 5.0 | 10.0 | 0.00 | 0.00 | 0.00 | 36 | 1023.1 |
| 20260502090310 | 73 | 180 | 5.0 | 7.0 | 0.00 | 0.00 | 0.00 | 37 | 1023.0 |
| 20260502090113 | 73 | 202 | 5.0 | 10.0 | 0.00 | 0.00 | 0.00 | 37 | 1023.1 |
| 20260502071415 | 69 | 180 | 5.0 | 8.0 | 0.00 | 0.00 | 0.00 | 41 | 1023.7 |
| 20260502071230 | 69 | 158 | 5.0 | 8.0 | 0.00 | 0.00 | 0.00 | 42 | 1023.6 |
| 20260502071050 | 69 | 180 | 4.0 | 6.0 | 0.00 | 0.00 | 0.00 | 41 | 1023.7 |
| 20260502070902 | 69 | 180 | 4.0 | 8.0 | 0.00 | 0.00 | 0.00 | 40 | 1023.7 |
| 20260502070808 | 69 | 158 | 4.0 | 8.0 | 0.00 | 0.00 | 0.00 | 41 | 1023.7 |
| 20260502070705 | 69 | 180 | 4.0 | 8.0 | 0.00 | 0.00 | 0.00 | 40 | 1023.7 |
| 20260502070515 | 69 | 180 | 4.0 | 8.0 | 0.00 | 0.00 | 0.00 | 41 | 1023.7 |
| 20260502070319 | 69 | 202 | 4.0 | 7.0 | 0.00 | 0.00 | 0.00 | 40 | 1023.7 |
| 20260502070130 | 70 | 112 | 4.0 | 6.0 | 0.00 | 0.00 | 0.00 | 40 | 1023.7 |
| 20260502065930 | 71 | 135 | 4.0 | 9.0 | 0.00 | 0.00 | 0.00 | 41 | 1023.7 |
| 20260502065745 | 71 | 248 | 3.0 | 9.0 | 0.00 | 0.00 | 0.00 | 40 | 1023.7 |
| 20260502065557 | 72 | 135 | 2.0 | 9.0 | 0.00 | 0.00 | 0.00 | 41 | 1023.8 |
| 20260502065358 | 72 | 180 | 2.0 | 6.0 | 0.00 | 0.00 | 0.00 | 40 | 1023.8 |
| 20260502065210 | 73 | 158 | 2.0 | 6.0 | 0.00 | 0.00 | 0.00 | 39 | 1023.8 |
| 20260502065045 | 73 | 180 | 1.0 | 5.0 | 0.00 | 0.00 | 0.00 | 39 | 1023.8 |
| 20260502065024 | 73 | 180 | 1.0 | 5.0 | 0.00 | 0.00 | 0.00 | 39 | 1023.8 |
| 20260502064845 | 73 | 202 | 1.0 | 5.0 | 0.00 | 0.00 | 0.00 | 37 | 1023.7 |
| 20260502064710 | 72 | 90 | 0.0 | 3.0 | 0.00 | 0.00 | 0.00 | 37 | 1023.8 |
| 20260502064510 | 72 | 90 | 1.0 | 3.0 | 0.00 | 0.00 | 0.00 | 38 | 1023.8 |
| 20260502064329 | 71 | 90 | 1.0 | 1.0 | 0.00 | 0.00 | 0.00 | 38 | 1023.8 |
| 20260502064139 | 71 | 112 | 1.0 | 2.0 | 0.00 | 0.00 | 0.00 | 39 | 1023.8 |
| 20260502063950 | 71 | 112 | 1.0 | 2.0 | 0.00 | 0.00 | 0.00 | 40 | 1023.8 |
| 20260502063757 | 71 | 90 | 1.0 | 5.0 | 0.00 | 0.00 | 0.00 | 40 | 1023.9 |
| 20260502063618 | 70 | 90 | 1.0 | 5.0 | 0.00 | 0.00 | 0.00 | 43 | 1023.9 |
| 20260502063514 | 71 | 90 | 2.0 | 5.0 | 0.00 | 0.00 | 0.00 | 41 | 1024.0 |
| 20260502063430 | 71 | 180 | 2.0 | 5.0 | 0.00 | 0.00 | 0.00 | 41 | 1023.9 |
| 20260502063235 | 71 | 112 | 1.0 | 3.0 | 0.00 | 0.00 | 0.00 | 40 | 1023.9 |
| 20260502063052 | 70 | 90 | 1.0 | 3.0 | 0.00 | 0.00 | 0.00 | 40 | 1024.0 |
| 20260502062915 | 70 | 135 | 1.0 | 5.0 | 0.00 | 0.00 | 0.00 | 43 | 1023.9 |
| 20260502062732 | 70 | 158 | 1.0 | 5.0 | 0.00 | 0.00 | 0.00 | 42 | 1023.9 |
| 20260502062536 | 70 | 90 | 1.0 | 5.0 | 0.00 | 0.00 | 0.00 | 43 | 1024.0 |
| 20260502062354 | 69 | 68 | 0.0 | 4.0 | 0.00 | 0.00 | 0.00 | 42 | 1024.0 |
| 20260502062157 | 69 | 90 | 0.0 | 2.0 | 0.00 | 0.00 | 0.00 | 41 | 1023.9 |
| 20260502062000 | 68 | 90 | 1.0 | 2.0 | 0.00 | 0.00 | 0.00 | 43 | 1023.9 |
| 20260502061935 | 68 | 90 | 1.0 | 2.0 | 0.00 | 0.00 | 0.00 | 42 | 1023.9 |
| 20260502061819 | 68 | 90 | 1.0 | 2.0 | 0.00 | 0.00 | 0.00 | 44 | 1024.0 |
| 20260502061635 | 67 | 90 | 1.0 | 2.0 | 0.00 | 0.00 | 0.00 | 44 | 1024.0 |
| 20260502061440 | 67 | 90 | 2.0 | 3.0 | 0.00 | 0.00 | 0.00 | 45 | 1024.1 |
| 20260502061254 | 67 | 90 | 2.0 | 5.0 | 0.00 | 0.00 | 0.00 | 47 | 1024.0 |
| 20260502061105 | 67 | 158 | 2.0 | 5.0 | 0.00 | 0.00 | 0.00 | 47 | 1024.0 |
| 20260502060905 | 67 | 90 | 2.0 | 5.0 | 0.00 | 0.00 | 0.00 | 47 | 1024.0 |
| 20260502060710 | 67 | 90 | 2.0 | 5.0 | 0.00 | 0.00 | 0.00 | 47 | 1024.1 |
| 20260502060520 | 67 | 90 | 1.0 | 5.0 | 0.00 | 0.00 | 0.00 | 46 | 1024.0 |
| 20260502060325 | 67 | 90 | 1.0 | 5.0 | 0.00 | 0.00 | 0.00 | 47 | 1024.0 |
| 20260502060142 | 67 | 90 | 1.0 | 3.0 | 0.00 | 0.00 | 0.00 | 46 | 1024.1 |
| 20260502060051 | 67 | 90 | 1.0 | 3.0 | 0.00 | 0.00 | 0.00 | 47 | 1024.0 |
| 20260502060005 | 67 | 90 | 1.0 | 3.0 | 0.00 | 0.00 | 0.00 | 47 | 1024.0 |
| 20260502055804 | 66 | 90 | 1.0 | 4.0 | 0.00 | 0.00 | 0.00 | 49 | 1024.0 |
| 20260502055623 | 66 | 90 | 1.0 | 4.0 | 0.00 | 0.00 | 0.00 | 48 | 1024.1 |
| 20260502055440 | 66 | 90 | 1.0 | 2.0 | 0.00 | 0.00 | 0.00 | 49 | 1024.1 |
| 20260502055255 | 66 | 90 | 1.0 | 2.0 | 0.00 | 0.00 | 0.00 | 47 | 1024.0 |
| 20260502055105 | 66 | 90 | 1.0 | 3.0 | 0.00 | 0.00 | 0.00 | 50 | 1024.1 |
| 20260502054916 | 66 | 90 | 1.0 | 3.0 | 0.00 | 0.00 | 0.00 | 50 | 1024.1 |
| 20260502054741 | 66 | 90 | 1.0 | 2.0 | 0.00 | 0.00 | 0.00 | 50 | 1024.2 |
| 20260502054543 | 65 | 90 | 1.0 | 5.0 | 0.00 | 0.00 | 0.00 | 50 | 1024.2 |
| 20260502054452 | 65 | 90 | 1.0 | 5.0 | 0.00 | 0.00 | 0.00 | 50 | 1024.2 |
| 20260502054345 | 65 | 90 | 1.0 | 5.0 | 0.00 | 0.00 | 0.00 | 50 | 1024.2 |
| 20260502054157 | 65 | 90 | 1.0 | 5.0 | 0.00 | 0.00 | 0.00 | 53 | 1024.2 |
| 20260502054020 | 65 | 90 | 1.0 | 5.0 | 0.00 | 0.00 | 0.00 | 50 | 1024.2 |
| 20260502053840 | 65 | 90 | 1.0 | 2.0 | 0.00 | 0.00 | 0.00 | 51 | 1024.2 |
| 20260502053642 | 64 | 90 | 1.0 | 3.0 | 0.00 | 0.00 | 0.00 | 52 | 1024.2 |
| 20260502053506 | 64 | 90 | 1.0 | 3.0 | 0.00 | 0.00 | 0.00 | 51 | 1024.2 |
| 20260502053315 | 63 | 90 | 1.0 | 2.0 | 0.00 | 0.00 | 0.00 | 52 | 1024.2 |
| 20260502053115 | 63 | 90 | 1.0 | 2.0 | 0.00 | 0.00 | 0.00 | 54 | 1024.2 |
| 20260502052918 | 62 | 90 | 1.0 | 2.0 | 0.00 | 0.00 | 0.00 | 53 | 1024.3 |
| 20260502052725 | 62 | 90 | 1.0 | 2.0 | 0.00 | 0.00 | 0.00 | 56 | 1024.2 |
| 20260502052635 | 62 | 90 | 2.0 | 2.0 | 0.00 | 0.00 | 0.00 | 55 | 1024.2 |
| 20260502052525 | 62 | 90 | 2.0 | 3.0 | 0.00 | 0.00 | 0.00 | 56 | 1024.2 |
| 20260502052340 | 61 | 90 | 2.0 | 3.0 | 0.00 | 0.00 | 0.00 | 57 | 1024.3 |
| 20260502052155 | 61 | 90 | 2.0 | 5.0 | 0.00 | 0.00 | 0.00 | 57 | 1024.2 |
| 20260502052015 | 61 | 90 | 2.0 | 5.0 | 0.00 | 0.00 | 0.00 | 58 | 1024.2 |
| 20260502051835 | 60 | 90 | 2.0 | 5.0 | 0.00 | 0.00 | 0.00 | 58 | 1024.3 |
| 20260502051655 | 60 | 112 | 2.0 | 3.0 | 0.00 | 0.00 | 0.00 | 59 | 1024.2 |
| 20260502051505 | 60 | 112 | 2.0 | 3.0 | 0.00 | 0.00 | 0.00 | 58 | 1024.3 |
| 20260502051307 | 60 | 112 | 2.0 | 3.0 | 0.00 | 0.00 | 0.00 | 58 | 1024.3 |
| 20260502051120 | 59 | 112 | 1.0 | 3.0 | 0.00 | 0.00 | 0.00 | 59 | 1024.4 |
| 20260502050940 | 59 | 112 | 1.0 | 3.0 | 0.00 | 0.00 | 0.00 | 60 | 1024.4 |
| 20260502050833 | 59 | 112 | 1.0 | 3.0 | 0.00 | 0.00 | 0.00 | 61 | 1024.3 |
| 20260502050754 | 59 | 112 | 1.0 | 3.0 | 0.00 | 0.00 | 0.00 | 61 | 1024.3 |
| 20260502050610 | 58 | 112 | 1.0 | 3.0 | 0.00 | 0.00 | 0.00 | 63 | 1024.4 |
| 20260502050430 | 58 | 112 | 0.0 | 2.0 | 0.00 | 0.00 | 0.00 | 64 | 1024.4 |
| 20260502050250 | 58 | 0 | 0.0 | 2.0 | 0.00 | 0.00 | 0.00 | 63 | 1024.4 |
| 20260502050050 | 58 | 0 | 0.0 | 0.0 | 0.00 | 0.00 | 0.00 | 63 | 1024.4 |
| 20260502045854 | 58 | 0 | 0.0 | 0.0 | 0.00 | 0.00 | 0.00 | 66 | 1024.3 |
| 20260502045707 | 57 | 0 | 0.0 | 0.0 | 0.00 | 0.00 | 0.00 | 66 | 1024.4 |
| 20260502045528 | 57 | 0 | 0.0 | 0.0 | 0.00 | 0.00 | 0.00 | 68 | 1024.4 |
| 20260502045345 | 56 | 0 | 0.0 | 0.0 | 0.00 | 0.00 | 0.00 | 69 | 1024.4 |
| 20260502045316 | 56 | 0 | 0.0 | 0.0 | 0.00 | 0.00 | 0.00 | 69 | 1024.3 |
| 20260502045200 | 56 | 0 | 0.0 | 0.0 | 0.00 | 0.00 | 0.00 | 68 | 1024.4 |
| 20260502045020 | 56 | 0 | 0.0 | 0.0 | 0.00 | 0.00 | 0.00 | 70 | 1024.3 |
| 20260502044826 | 55 | 0 | 0.0 | 0.0 | 0.00 | 0.00 | 0.00 | 72 | 1024.4 |
| 20260502044650 | 55 | 0 | 0.0 | 0.0 | 0.00 | 0.00 | 0.00 | 74 | 1024.4 |
| 20260502044503 | 55 | 0 | 0.0 | 0.0 | 0.00 | 0.00 | 0.00 | 74 | 1024.3 |
| 20260502044320 | 55 | 0 | 0.0 | 0.0 | 0.00 | 0.00 | 0.00 | 75 | 1024.4 |
| 20260502044130 | 54 | 0 | 0.0 | 0.0 | 0.00 | 0.00 | 0.00 | 77 | 1024.3 |
| 20260502043950 | 54 | 0 | 0.0 | 0.0 | 0.00 | 0.00 | 0.00 | 79 | 1024.3 |
| 20260502043755 | 54 | 0 | 0.0 | 0.0 | 0.00 | 0.00 | 0.00 | 80 | 1024.3 |
| 20260502043555 | 53 | 0 | 0.0 | 0.0 | 0.00 | 0.00 | 0.00 | 81 | 1024.3 |
| 20260502043410 | 53 | 112 | 0.0 | 0.0 | 0.00 | 0.00 | 0.00 | 80 | 1024.3 |
| 20260502043210 | 53 | 135 | 1.0 | 0.0 | 0.00 | 0.00 | 0.00 | 83 | 1024.3 |
| 20260502043021 | 52 | 135 | 1.0 | 0.0 | 0.00 | 0.00 | 0.00 | 84 | 1024.3 |
| 20260502042825 | 52 | 135 | 1.0 | 2.0 | 0.00 | 0.00 | 0.00 | 85 | 1024.3 |
| 20260502042640 | 52 | 135 | 2.0 | 2.0 | 0.00 | 0.00 | 0.00 | 85 | 1024.3 |
| 20260502042450 | 51 | 135 | 2.0 | 3.0 | 0.00 | 0.00 | 0.00 | 87 | 1024.2 |
| 20260502042315 | 51 | 135 | 1.0 | 3.0 | 0.00 | 0.00 | 0.00 | 88 | 1024.3 |
| 20260502042118 | 51 | 135 | 1.0 | 3.0 | 0.00 | 0.00 | 0.00 | 87 | 1024.3 |
| 20260502042000 | 51 | 135 | 0.0 | 3.0 | 0.00 | 0.00 | 0.00 | 88 | 1024.2 |
| 20260502041927 | 51 | 135 | 0.0 | 3.0 | 0.00 | 0.00 | 0.00 | 88 | 1024.3 |
| 20260502041740 | 50 | 0 | 0.0 | 0.0 | 0.00 | 0.00 | 0.00 | 89 | 1024.3 |
| 20260502041554 | 50 | 0 | 0.0 | 0.0 | 0.00 | 0.00 | 0.00 | 89 | 1024.2 |
| 20260502041415 | 50 | 0 | 0.0 | 0.0 | 0.00 | 0.00 | 0.00 | 90 | 1024.2 |
| 20260502041215 | 49 | 0 | 0.0 | 0.0 | 0.00 | 0.00 | 0.00 | 90 | 1024.3 |
| 20260502041020 | 49 | 0 | 0.0 | 0.0 | 0.00 | 0.00 | 0.00 | 91 | 1024.3 |
| 20260502040840 | 49 | 0 | 0.0 | 0.0 | 0.00 | 0.00 | 0.00 | 92 | 1024.3 |
| 20260502040648 | 48 | 0 | 0.0 | 0.0 | 0.00 | 0.00 | 0.00 | 92 | 1024.3 |
| 20260502040458 | 48 | 135 | 0.0 | 0.0 | 0.00 | 0.00 | 0.00 | 93 | 1024.2 |
| 20260502040310 | 48 | 135 | 0.0 | 0.0 | 0.00 | 0.00 | 0.00 | 93 | 1024.3 |
| 20260502040203 | 48 | 135 | 1.0 | 2.0 | 0.00 | 0.00 | 0.00 | 93 | 1024.3 |
| 20260502040120 | 48 | 135 | 1.0 | 2.0 | 0.00 | 0.00 | 0.00 | 93 | 1024.3 |
| 20260502035940 | 48 | 135 | 1.0 | 2.0 | 0.00 | 0.00 | 0.00 | 94 | 1024.3 |
| 20260502035753 | 48 | 135 | 2.0 | 2.0 | 0.00 | 0.00 | 0.00 | 94 | 1024.3 |
| 20260502035610 | 48 | 135 | 2.0 | 3.0 | 0.00 | 0.00 | 0.00 | 94 | 1024.3 |
| 20260502035415 | 48 | 135 | 2.0 | 3.0 | 0.00 | 0.00 | 0.00 | 95 | 1024.3 |
| 20260502035215 | 48 | 135 | 2.0 | 3.0 | 0.00 | 0.00 | 0.00 | 96 | 1024.3 |
| 20260502035017 | 48 | 135 | 2.0 | 3.0 | 0.00 | 0.00 | 0.00 | 97 | 1024.3 |
| 20260502034827 | 48 | 158 | 1.0 | 3.0 | 0.00 | 0.00 | 0.00 | 97 | 1024.3 |
| 20260502034640 | 48 | 158 | 1.0 | 3.0 | 0.00 | 0.00 | 0.00 | 98 | 1024.2 |
| 20260502034546 | 48 | 158 | 1.0 | 2.0 | 0.00 | 0.00 | 0.00 | 98 | 1024.2 |
| 20260502034445 | 48 | 158 | 1.0 | 2.0 | 0.00 | 0.00 | 0.00 | 97 | 1024.2 |
| 20260502034250 | 48 | 158 | 1.0 | 2.0 | 0.00 | 0.00 | 0.00 | 97 | 1024.3 |
| 20260502034059 | 48 | 158 | 1.0 | 2.0 | 0.00 | 0.00 | 0.00 | 97 | 1024.2 |
| 20260502033912 | 48 | 158 | 1.0 | 3.0 | 0.00 | 0.00 | 0.00 | 97 | 1024.2 |
| 20260502033720 | 47 | 158 | 1.0 | 3.0 | 0.00 | 0.00 | 0.00 | 98 | 1024.2 |
| 20260502033539 | 47 | 158 | 0.0 | 3.0 | 0.00 | 0.00 | 0.00 | 98 | 1024.3 |
| 20260502033357 | 47 | 0 | 0.0 | 2.0 | 0.00 | 0.00 | 0.00 | 98 | 1024.3 |
| 20260502033205 | 47 | 0 | 0.0 | 0.0 | 0.00 | 0.00 | 0.00 | 98 | 1024.3 |
| 20260502033010 | 47 | 0 | 0.0 | 0.0 | 0.00 | 0.00 | 0.00 | 97 | 1024.3 |
| 20260502032815 | 47 | 0 | 0.0 | 0.0 | 0.00 | 0.00 | 0.00 | 97 | 1024.4 |
| 20260502032615 | 47 | 0 | 0.0 | 0.0 | 0.00 | 0.00 | 0.00 | 97 | 1024.4 |
| 20260502032420 | 47 | 0 | 0.0 | 0.0 | 0.00 | 0.00 | 0.00 | 97 | 1024.3 |
| 20260502032224 | 47 | 0 | 0.0 | 0.0 | 0.00 | 0.00 | 0.00 | 97 | 1024.4 |
| 20260502032046 | 47 | 0 | 0.0 | 0.0 | 0.00 | 0.00 | 0.00 | 97 | 1024.3 |
| 20260502031906 | 47 | 0 | 0.0 | 0.0 | 0.00 | 0.00 | 0.00 | 97 | 1024.4 |
| 20260502031720 | 47 | 0 | 0.0 | 0.0 | 0.00 | 0.00 | 0.00 | 97 | 1024.4 |
| 20260502031535 | 47 | 0 | 0.0 | 0.0 | 0.00 | 0.00 | 0.00 | 97 | 1024.4 |
| 20260502031453 | 47 | 0 | 0.0 | 0.0 | 0.00 | 0.00 | 0.00 | 97 | 1024.5 |
| 20260502031348 | 47 | 0 | 0.0 | 0.0 | 0.00 | 0.00 | 0.00 | 97 | 1024.5 |
| 20260502031155 | 47 | 0 | 0.0 | 0.0 | 0.00 | 0.00 | 0.00 | 97 | 1024.4 |
| 20260502031015 | 47 | 0 | 0.0 | 0.0 | 0.00 | 0.00 | 0.00 | 97 | 1024.4 |
| 20260502030825 | 47 | 0 | 0.0 | 0.0 | 0.00 | 0.00 | 0.00 | 97 | 1024.5 |
| 20260502030643 | 47 | 0 | 0.0 | 0.0 | 0.00 | 0.00 | 0.00 | 97 | 1024.5 |
| 20260502030453 | 47 | 0 | 0.0 | 0.0 | 0.00 | 0.00 | 0.00 | 97 | 1024.6 |
| 20260502030258 | 47 | 0 | 0.0 | 0.0 | 0.00 | 0.00 | 0.00 | 97 | 1024.5 |
| 20260502030115 | 47 | 0 | 0.0 | 0.0 | 0.00 | 0.00 | 0.00 | 97 | 1024.5 |
| 20260502025930 | 47 | 0 | 0.0 | 0.0 | 0.00 | 0.00 | 0.00 | 96 | 1024.5 |
| 20260502025816 | 47 | 0 | 0.0 | 0.0 | 0.00 | 0.00 | 0.00 | 96 | 1024.5 |
| 20260502025745 | 47 | 0 | 0.0 | 0.0 | 0.00 | 0.00 | 0.00 | 96 | 1024.5 |
| 20260502025555 | 47 | 0 | 0.0 | 0.0 | 0.00 | 0.00 | 0.00 | 96 | 1024.6 |
| 20260502025410 | 47 | 0 | 0.0 | 0.0 | 0.00 | 0.00 | 0.00 | 96 | 1024.6 |
| 20260502025210 | 47 | 0 | 0.0 | 0.0 | 0.00 | 0.00 | 0.00 | 96 | 1024.5 |
| 20260502025027 | 47 | 0 | 0.0 | 0.0 | 0.00 | 0.00 | 0.00 | 96 | 1024.6 |
| 20260502024850 | 48 | 0 | 0.0 | 0.0 | 0.00 | 0.00 | 0.00 | 96 | 1024.5 |
| 20260502024659 | 48 | 0 | 0.0 | 0.0 | 0.00 | 0.00 | 0.00 | 96 | 1024.5 |
| 20260502024503 | 48 | 0 | 0.0 | 0.0 | 0.00 | 0.00 | 0.00 | 96 | 1024.5 |
| 20260502024320 | 48 | 0 | 0.0 | 0.0 | 0.00 | 0.00 | 0.00 | 97 | 1024.5 |
| 20260502024307 | 48 | 0 | 0.0 | 0.0 | 0.00 | 0.00 | 0.00 | 96 | 1024.5 |
| 20260502024125 | 48 | 0 | 0.0 | 0.0 | 0.00 | 0.00 | 0.00 | 96 | 1024.5 |
| 20260502023934 | 48 | 0 | 0.0 | 0.0 | 0.00 | 0.00 | 0.00 | 97 | 1024.6 |
| 20260502023737 | 47 | 0 | 0.0 | 0.0 | 0.00 | 0.00 | 0.00 | 97 | 1024.6 |
| 20260502023548 | 47 | 0 | 0.0 | 0.0 | 0.00 | 0.00 | 0.00 | 97 | 1024.6 |
| 20260502023410 | 47 | 0 | 0.0 | 0.0 | 0.00 | 0.00 | 0.00 | 97 | 1024.5 |
| 20260502023220 | 47 | 0 | 0.0 | 0.0 | 0.00 | 0.00 | 0.00 | 97 | 1024.6 |
| 20260502023040 | 47 | 0 | 0.0 | 0.0 | 0.00 | 0.00 | 0.00 | 96 | 1024.6 |
| 20260502022849 | 47 | 0 | 0.0 | 0.0 | 0.00 | 0.00 | 0.00 | 96 | 1024.5 |
| 20260502022710 | 47 | 0 | 0.0 | 0.0 | 0.00 | 0.00 | 0.00 | 97 | 1024.6 |
| 20260502022515 | 47 | 0 | 0.0 | 0.0 | 0.00 | 0.00 | 0.00 | 97 | 1024.6 |
| 20260502022330 | 47 | 0 | 0.0 | 0.0 | 0.00 | 0.00 | 0.00 | 97 | 1024.7 |
| 20260502022150 | 47 | 0 | 0.0 | 0.0 | 0.00 | 0.00 | 0.00 | 97 | 1024.6 |
| 20260502021955 | 47 | 0 | 0.0 | 0.0 | 0.00 | 0.00 | 0.00 | 96 | 1024.6 |
| 20260502021818 | 46 | 0 | 0.0 | 0.0 | 0.00 | 0.00 | 0.00 | 96 | 1024.5 |
| 20260502021624 | 46 | 0 | 0.0 | 0.0 | 0.00 | 0.00 | 0.00 | 96 | 1024.6 |
| 20260502021434 | 46 | 0 | 0.0 | 0.0 | 0.00 | 0.00 | 0.00 | 96 | 1024.6 |
| 20260502021245 | 47 | 0 | 0.0 | 0.0 | 0.00 | 0.00 | 0.00 | 96 | 1024.6 |
| 20260502021058 | 46 | 0 | 0.0 | 0.0 | 0.00 | 0.00 | 0.00 | 96 | 1024.7 |
| 20260502020912 | 46 | 0 | 0.0 | 0.0 | 0.00 | 0.00 | 0.00 | 96 | 1024.6 |
| 20260502020838 | 46 | 0 | 0.0 | 0.0 | 0.00 | 0.00 | 0.00 | 96 | 1024.7 |
| 20260502020730 | 46 | 0 | 0.0 | 0.0 | 0.00 | 0.00 | 0.00 | 96 | 1024.6 |
| 20260502020546 | 46 | 0 | 0.0 | 0.0 | 0.00 | 0.00 | 0.00 | 96 | 1024.7 |
| 20260502020405 | 46 | 0 | 0.0 | 0.0 | 0.00 | 0.00 | 0.00 | 96 | 1024.7 |
| 20260502020209 | 46 | 0 | 0.0 | 0.0 | 0.00 | 0.00 | 0.00 | 96 | 1024.6 |
| 20260502020025 | 46 | 0 | 0.0 | 0.0 | 0.00 | 0.00 | 0.00 | 96 | 1024.6 |
| 20260502015840 | 46 | 0 | 0.0 | 0.0 | 0.00 | 0.00 | 0.00 | 96 | 1024.6 |
| 20260502015705 | 46 | 0 | 0.0 | 0.0 | 0.00 | 0.00 | 0.00 | 96 | 1024.6 |
| 20260502015518 | 46 | 0 | 0.0 | 0.0 | 0.00 | 0.00 | 0.00 | 96 | 1024.7 |
| 20260502015335 | 46 | 0 | 0.0 | 0.0 | 0.00 | 0.00 | 0.00 | 96 | 1024.7 |
| 20260502015155 | 47 | 0 | 0.0 | 0.0 | 0.00 | 0.00 | 0.00 | 96 | 1024.6 |
| 20260502015047 | 47 | 0 | 0.0 | 0.0 | 0.00 | 0.00 | 0.00 | 96 | 1024.6 |
| 20260502014958 | 47 | 0 | 0.0 | 0.0 | 0.00 | 0.00 | 0.00 | 96 | 1024.6 |
| 20260502014815 | 47 | 0 | 0.0 | 0.0 | 0.00 | 0.00 | 0.00 | 96 | 1024.6 |
| 20260502014625 | 47 | 0 | 0.0 | 0.0 | 0.00 | 0.00 | 0.00 | 96 | 1024.7 |
| 20260502014425 | 47 | 0 | 0.0 | 0.0 | 0.00 | 0.00 | 0.00 | 96 | 1024.7 |
| 20260502014224 | 47 | 0 | 0.0 | 0.0 | 0.00 | 0.00 | 0.00 | 96 | 1024.8 |
| 20260502014033 | 47 | 0 | 0.0 | 0.0 | 0.00 | 0.00 | 0.00 | 96 | 1024.8 |
| 20260502013840 | 47 | 0 | 0.0 | 0.0 | 0.00 | 0.00 | 0.00 | 95 | 1024.7 |
| 20260502013700 | 47 | 0 | 0.0 | 0.0 | 0.00 | 0.00 | 0.00 | 95 | 1024.8 |
| 20260502013505 | 47 | 0 | 0.0 | 0.0 | 0.00 | 0.00 | 0.00 | 95 | 1024.8 |
| 20260502013337 | 47 | 0 | 0.0 | 0.0 | 0.00 | 0.00 | 0.00 | 95 | 1024.8 |
| 20260502013308 | 47 | 0 | 0.0 | 0.0 | 0.00 | 0.00 | 0.00 | 95 | 1024.8 |
| 20260502013119 | 47 | 0 | 0.0 | 0.0 | 0.00 | 0.00 | 0.00 | 95 | 1024.8 |
| 20260502012943 | 47 | 0 | 0.0 | 0.0 | 0.00 | 0.00 | 0.00 | 96 | 1024.9 |
| 20260502012745 | 47 | 158 | 0.0 | 0.0 | 0.00 | 0.00 | 0.00 | 95 | 1024.8 |
| 20260502012555 | 47 | 158 | 0.0 | 0.0 | 0.00 | 0.00 | 0.00 | 95 | 1024.9 |
| 20260502012410 | 47 | 158 | 0.0 | 2.0 | 0.00 | 0.00 | 0.00 | 95 | 1024.8 |
| 20260502012218 | 47 | 158 | 0.0 | 2.0 | 0.00 | 0.00 | 0.00 | 95 | 1024.8 |
| 20260502012025 | 47 | 158 | 0.0 | 2.0 | 0.00 | 0.00 | 0.00 | 95 | 1024.8 |
| 20260502011835 | 47 | 0 | 0.0 | 0.0 | 0.00 | 0.00 | 0.00 | 94 | 1024.9 |
| 20260502011712 | 47 | 0 | 0.0 | 0.0 | 0.00 | 0.00 | 0.00 | 94 | 1025.0 |
| 20260502011648 | 47 | 0 | 0.0 | 0.0 | 0.00 | 0.00 | 0.00 | 94 | 1024.9 |
| 20260502011510 | 47 | 0 | 0.0 | 0.0 | 0.00 | 0.00 | 0.00 | 94 | 1025.0 |
| 20260502011325 | 47 | 0 | 0.0 | 0.0 | 0.00 | 0.00 | 0.00 | 94 | 1025.0 |